Wind_Speed
35 35 35 35 35 34 34 35 33 29 28 29 28 25 23 20 19 18 16 16 17 18 17 17 17 17 19 21 22 22 21 20 19 18 18 18 17 17 16 16 16 15 14
39 39 40 40 40 39 36 35 36 34 31 30 29 29 27 25 22 22 21 19 20 20 21 21 21 20 21 22 23 24 24 23 22 21 21 20 19 19 19 18 17 17 17
40 42 43 44 45 45 43 40 39 38 36 34 33 32 31 30 28 26 26 24 23 23 25 25 26 25 24 24 25 25 25 25 24 24 23 22 22 21 21 21 20 19 19
43 45 46 47 48 49 50 47 45 43 41 39 38 36 35 34 33 31 30 29 27 26 27 29 30 29 28 27 26 26 25 25 26 25 24 24 23 23 23 23 23 23 22
44 47 49 50 52 53 53 53 51 48 46 44 43 41 40 38 37 35 33 32 31 29 29 29 31 31 30 30 28 27 26 25 26 26 26 25 25 25 25 25 25 25 25
45 47 49 51 54 55 55 55 54 52 50 49 49 46 43 41 39 37 36 35 33 32 30 29 30 31 30 30 30 29 28 27 27 27 28 28 28 28 28 29 29 29 28
48 49 50 51 52 53 52 53 52 51 52 53 52 49 46 43 41 39 37 36 35 34 31 30 30 30 30 29 30 30 29 29 28 29 29 30 30 30 31 31 32 32 31
50 50 51 51 51 50 50 49 50 51 51 53 53 50 47 43 40 38 37 37 36 35 34 33 33 32 31 29 29 30 31 30 30 30 31 31 32 33 33 32 33 33 33
51 51 51 51 51 50 48 47 48 48 49 49 50 49 46 44 42 39 38 38 37 36 36 37 37 35 33 31 29 29 30 31 31 31 32 33 34 35 35 34 34 34 33
50 51 52 53 52 51 49 47 47 46 45 44 44 44 44 44 43 40 39 39 39 37 38 39 39 36 32 30 29 28 29 31 32 32 33 34 35 36 36 36 35 35 35
49 49 50 52 53 52 50 48 46 45 43 41 39 39 41 43 44 43 41 40 39 39 38 38 37 34 31 29 28 27 27 29 31 33 34 35 35 36 37 37 36 37 37
49 48 49 51 52 52 50 48 46 44 41 38 36 37 39 42 44 45 45 41 39 39 37 34 33 32 30 29 27 25 26 27 29 31 33 34 35 36 37 38 38 39 39
50 49 49 50 51 50 48 46 43 41 38 36 36 37 39 40 43 46 45 41 37 35 33 32 31 30 30 29 27 26 27 27 29 31 34 36 36 37 39 40 40 40 39
51 50 49 48 48 46 44 42 41 37 35 36 37 37 39 42 42 41 38 34 31 31 31 31 31 31 31 31 30 30 30 31 32 33 35 36 37 37 39 40 41 40 39
51 48 46 44 42 40 37 36 36 33 33 35 35 35 37 37 36 32 29 28 28 29 30 31 31 31 32 33 34 34 33 32 32 32 32 33 35 36 37 40 41 41 39
45 42 39 37 36 33 31 32 31 30 30 30 30 30 30 29 26 25 25 27 28 30 31 31 32 32 33 33 34 34 33 32 32 31 30 31 33 35 38 40 42 42 42
38 35 33 32 32 31 30 30 29 28 28 26 24 23 22 21 21 23 26 27 29 30 31 32 32 33 34 35 36 36 36 36 36 35 33 32 33 36 38 41 43 44 43
32 30 29 29 29 29 30 29 29 27 26 24 23 21 21 22 23 25 26 28 29 30 31 33 34 35 35 37 38 39 39 39 39 38 36 35 35 37 39 41 42 43 42
27 27 29 28 27 28 28 27 28 27 25 24 23 23 23 24 24 25 27 28 29 29 31 33 34 35 36 36 37 38 39 40 39 39 38 38 37 38 40 40 40 41 40
22 24 25 26 26 27 27 26 26 25 24 23 23 23 23 23 24 26 26 27 28 29 31 32 33 34 35 36 37 38 39 39 39 39 38 38 38 38 39 39 38 38 38
15 18 20 21 23 25 25 24 24 24 23 22 22 21 21 22 23 24 25 26 27 29 30 31 32 32 34 35 36 37 38 38 39 38 38 37 37 37 37 37 35 35 35
7 8 9 11 13 15 17 19 20 21 22 22 21 20 20 20 21 22 23 25 27 28 29 30 31 32 34 35 36 37 37 38 38 38 37 36 36 36 36 35 33 30 30
7 5 4 6 8 10 12 13 15 17 18 19 19 19 20 20 21 22 23 25 26 28 29 31 32 33 34 34 35 37 38 38 38 38 37 36 35 35 34 34 34 30 28
7 6 6 7 9 10 11 12 13 14 15 16 17 18 18 18 18 20 22 23 24 25 26 26 28 29 31 33 34 35 35 36 37 37 36 35 34 33 32 32 33 32 28
9 9 9 9 10 10 11 12 13 14 15 15 16 16 16 16 17 17 17 18 18 19 20 23 26 28 31 33 35 36 36 35 35 34 34 33 32 31 30 29 29 29 25
11 11 11 11 12 12 12 12 12 12 12 13 13 14 14 13 13 12 12 14 16 19 22 25 28 30 32 34 35 35 36 35 35 33 32 31 30 30 28 28 27 27 27
Wind_Direction
305 305 305 303 302 300 296 294 291 285 279 273 269 265 262 265 271 278 285 293 299 300 298 297 295 290 283 279 277 277 278 279 281 281 280 279 278 278 280 283 284 283 282
298 300 301 302 302 303 303 298 294 289 284 280 275 270 263 262 265 272 278 284 289 293 293 291 290 289 286 282 278 275 274 274 275 277 277 276 275 274 275 277 280 281 280
291 293 295 297 298 298 298 300 297 292 286 281 278 274 268 264 266 268 272 277 282 286 289 289 287 286 285 283 279 276 273 271 270 272 274 274 273 273 274 275 277 278 279
289 289 290 291 292 292 292 293 294 293 288 282 277 273 270 266 265 266 269 274 278 282 286 288 287 285 284 282 278 275 273 270 268 268 270 270 270 272 273 276 277 277 276
287 287 286 286 286 287 288 288 288 288 288 284 279 275 270 265 262 263 266 270 274 278 282 286 287 285 283 280 278 274 271 268 266 266 267 267 268 270 274 278 281 281 277
284 283 283 284 284 285 285 285 285 285 285 285 280 277 272 265 261 261 263 268 273 276 281 285 287 284 281 279 277 273 269 265 264 265 266 267 268 271 275 279 282 283 281
282 281 281 282 282 284 284 283 282 280 282 283 283 278 272 266 261 260 262 266 272 276 282 286 288 284 280 277 276 273 269 264 262 263 264 267 270 272 275 277 280 282 281
280 280 280 281 281 281 282 282 280 278 280 281 280 278 272 264 262 262 261 264 269 275 282 288 290 286 280 276 273 272 270 267 264 262 263 265 267 271 274 277 279 281 280
280 280 279 279 279 279 279 280 280 278 279 279 277 273 270 263 260 261 261 263 266 272 279 287 289 286 282 279 276 273 271 269 267 266 266 266 267 269 272 275 277 280 279
280 280 280 279 279 279 279 279 279 278 277 276 273 268 263 258 256 258 262 265 268 271 277 284 286 284 282 280 278 275 274 273 273 272 271 270 271 272 272 274 276 278 279
281 281 280 280 278 277 277 278 277 277 276 273 269 263 257 254 254 258 260 265 269 273 277 281 281 280 279 278 278 278 277 275 275 275 275 274 275 275 274 274 273 275 277
281 281 280 279 278 276 275 275 274 274 273 268 263 256 251 251 256 259 260 261 266 273 277 277 275 274 275 276 277 277 276 275 274 277 278 279 280 278 277 275 273 273 274
283 281 280 278 276 273 270 270 271 271 268 263 257 252 250 253 257 259 259 260 263 269 272 273 271 269 270 273 275 276 276 276 276 276 278 281 282 280 279 277 272 270 270
284 282 279 275 272 270 266 265 266 265 261 257 253 251 251 253 254 255 257 258 260 264 267 269 268 268 269 273 276 276 277 278 278 278 279 281 283 282 279 276 271 267 265
283 279 274 271 268 264 260 259 260 256 253 252 249 247 248 248 249 250 252 256 260 262 263 265 266 269 272 275 277 279 281 281 282 282 283 285 285 283 280 275 270 264 262
282 277 271 266 260 253 252 251 248 244 244 243 243 244 245 247 248 250 253 257 261 263 263 263 264 267 270 273 276 279 282 285 287 288 290 293 293 288 281 274 270 265 262
279 272 265 255 247 243 241 240 239 239 240 241 242 246 251 256 259 261 261 262 263 263 265 266 268 269 271 273 275 278 281 284 287 289 292 295 296 294 286 278 271 266 262
275 264 253 243 236 237 237 236 238 238 241 246 250 258 265 271 272 269 267 265 265 266 268 270 272 274 276 277 279 280 282 284 286 288 291 293 294 294 291 283 274 266 261
270 256 247 238 232 233 234 236 241 244 247 252 257 262 266 270 271 270 269 268 270 272 273 274 276 278 280 280 282 283 284 285 286 289 290 290 290 290 292 288 276 265 259
268 254 244 236 230 231 233 236 241 245 250 254 258 262 265 267 269 270 272 274 276 277 277 278 280 281 282 284 284 285 285 286 286 287 288 287 285 285 290 288 278 265 257
269 247 241 235 229 229 229 231 238 244 248 254 259 262 265 268 271 274 276 278 280 280 280 282 283 285 285 285 286 286 286 287 286 286 286 284 281 280 282 285 278 265 254
281 248 233 228 230 232 233 237 245 249 251 253 257 262 266 270 274 277 279 281 282 283 284 286 286 287 287 287 287 286 286 286 286 284 284 282 280 278 276 278 275 266 253
300 283 257 245 247 248 246 247 249 251 253 255 258 261 266 270 272 275 277 279 282 285 287 289 290 291 291 289 288 287 286 285 284 282 281 281 280 280 278 275 274 271 258
288 283 275 261 253 248 244 246 248 250 253 256 258 260 262 265 269 274 280 284 287 291 294 296 296 296 295 294 293 290 288 287 284 283 281 281 280 280 280 278 275 276 265
283 281 276 269 263 259 256 253 253 255 256 257 257 260 264 270 277 282 287 292 296 300 303 304 303 302 299 297 295 293 291 289 287 285 283 281 279 278 277 278 277 275 269
283 282 280 274 268 265 264 260 258 257 255 256 259 263 269 276 283 290 296 303 306 308 309 308 306 303 301 299 296 294 291 289 286 285 284 282 279 276 275 274 273 270 270
Height
5899 5898 5897 5897 5896 5896 5895 5894 5893 5892 5891 5890 5890 5889 5889 5888 5887 5887 5887 5886 5885 5885 5884 5882 5881 5881 5880 5881 5881 5882 5882 5882 5882 5881 5881 5881 5880 5880 5880 5879 5879 5879 5880
5892 5891 5890 5889 5889 5888 5888 5887 5886 5886 5886 5885 5885 5885 5884 5884 5883 5882 5882 5882 5881 5881 5880 5879 5878 5876 5876 5875 5875 5876 5876 5877 5878 5877 5877 5877 5877 5876 5876 5876 5876 5875 5876
5885 5883 5883 5882 5881 5881 5880 5880 5879 5879 5879 5879 5879 5879 5879 5879 5878 5877 5877 5876 5876 5876 5875 5874 5873 5872 5871 5870 5870 5870 5870 5871 5872 5872 5872 5872 5872 5872 5872 5872 5872 5872 5872
5876 5875 5874 5873 5872 5872 5872 5871 5870 5870 5869 5870 5870 5871 5871 5872 5871 5870 5870 5870 5870 5870 5869 5868 5867 5867 5866 5865 5864 5864 5864 5865 5865 5866 5867 5867 5867 5867 5867 5867 5867 5867 5867
5868 5866 5865 5864 5862 5861 5862 5861 5861 5861 5860 5859 5859 5861 5862 5863 5863 5862 5863 5863 5863 5863 5862 5862 5861 5860 5859 5858 5858 5857 5857 5858 5859 5860 5861 5861 5861 5862 5862 5862 5862 5862 5862
5858 5857 5856 5854 5852 5850 5850 5849 5849 5849 5849 5848 5848 5849 5851 5852 5853 5854 5854 5855 5855 5855 5855 5855 5855 5854 5853 5852 5851 5850 5850 5851 5852 5853 5855 5855 5856 5856 5856 5857 5856 5856 5856
5847 5846 5845 5844 5842 5840 5838 5837 5836 5836 5836 5836 5835 5836 5838 5840 5842 5844 5846 5847 5847 5846 5847 5847 5847 5847 5846 5845 5843 5843 5843 5844 5845 5846 5847 5848 5849 5849 5850 5850 5850 5850 5850
5836 5834 5833 5832 5831 5829 5828 5826 5825 5824 5824 5823 5822 5823 5825 5828 5831 5834 5836 5837 5838 5838 5838 5838 5838 5838 5838 5838 5837 5835 5836 5837 5837 5838 5839 5840 5841 5842 5843 5843 5843 5843 5843
5825 5823 5822 5821 5819 5818 5817 5816 5814 5813 5813 5812 5811 5811 5813 5816 5820 5824 5825 5827 5829 5829 5829 5830 5830 5829 5828 5828 5829 5829 5828 5829 5830 5831 5832 5833 5833 5834 5835 5835 5836 5835 5835
5814 5812 5811 5809 5808 5806 5805 5804 5803 5801 5801 5800 5800 5800 5802 5805 5809 5813 5815 5816 5818 5820 5821 5821 5821 5820 5820 5820 5820 5822 5821 5821 5822 5823 5823 5824 5825 5826 5827 5828 5828 5827 5827
5802 5800 5799 5797 5796 5794 5793 5793 5792 5791 5790 5789 5789 5790 5792 5795 5799 5803 5806 5807 5808 5810 5811 5812 5811 5811 5812 5813 5813 5814 5814 5814 5813 5814 5815 5816 5817 5817 5818 5819 5819 5819 5818
5790 5788 5786 5785 5783 5782 5782 5781 5781 5780 5779 5779 5780 5782 5784 5787 5789 5792 5795 5797 5799 5800 5801 5802 5803 5803 5804 5806 5806 5806 5806 5806 5806 5806 5806 5807 5808 5809 5809 5810 5810 5810 5810
5777 5775 5773 5772 5771 5770 5770 5770 5770 5770 5770 5771 5772 5774 5776 5778 5780 5782 5785 5788 5790 5791 5792 5793 5794 5795 5796 5797 5798 5799 5799 5800 5799 5799 5799 5799 5800 5800 5800 5800 5800 5801 5800
5762 5761 5759 5758 5758 5758 5759 5759 5760 5760 5761 5762 5764 5766 5767 5769 5771 5773 5775 5778 5781 5783 5784 5785 5786 5787 5788 5789 5790 5791 5792 5792 5792 5792 5791 5790 5790 5790 5790 5790 5789 5790 5790
5748 5746 5745 5745 5745 5747 5748 5749 5751 5752 5754 5755 5756 5757 5758 5759 5761 5763 5766 5769 5772 5774 5776 5777 5778 5779 5779 5781 5781 5782 5782 5783 5783 5782 5781 5780 5779 5779 5779 5779 5779 5779 5780
5734 5732 5732 5733 5735 5738 5740 5742 5743 5744 5746 5747 5748 5748 5749 5750 5752 5755 5759 5762 5764 5766 5768 5769 5770 5771 5772 5773 5773 5773 5774 5774 5773 5772 5770 5769 5768 5768 5768 5768 5768 5769 5769
5722 5721 5722 5724 5727 5730 5733 5735 5736 5737 5739 5740 5741 5742 5742 5744 5747 5749 5752 5755 5757 5759 5760 5761 5762 5763 5764 5764 5765 5765 5765 5765 5764 5762 5760 5758 5757 5757 5757 5756 5756 5757 5758
5712 5712 5714 5717 5720 5723 5726 5728 5730 5731 5732 5733 5735 5736 5738 5740 5742 5745 5748 5750 5752 5753 5754 5754 5754 5755 5755 5756 5756 5755 5755 5754 5753 5751 5749 5748 5747 5747 5746 5745 5745 5745 5746
5704 5705 5707 5710 5713 5716 5719 5721 5723 5725 5727 5728 5730 5732 5734 5736 5738 5741 5743 5744 5745 5746 5746 5747 5747 5747 5747 5747 5746 5745 5744 5744 5742 5740 5738 5738 5737 5737 5735 5734 5733 5733 5735
5697 5698 5700 5703 5706 5709 5713 5715 5718 5720 5722 5724 5726 5728 5730 5732 5734 5736 5737 5738 5739 5739 5739 5740 5740 5739 5738 5737 5737 5735 5734 5732 5731 5729 5728 5727 5727 5727 5726 5724 5722 5722 5723
5693 5694 5696 5698 5700 5704 5706 5709 5712 5715 5717 5719 5721 5723 5725 5727 5729 5730 5731 5731 5732 5732 5732 5732 5732 5731 5729 5728 5727 5725 5724 5722 5720 5719 5718 5718 5717 5717 5716 5715 5712 5711 5712
5692 5692 5693 5695 5697 5700 5702 5705 5708 5710 5713 5715 5717 5719 5720 5721 5723 5724 5724 5725 5725 5725 5725 5724 5723 5721 5720 5718 5716 5715 5713 5712 5710 5709 5708 5708 5707 5706 5706 5706 5704 5703 5703
5692 5691 5692 5694 5695 5697 5699 5702 5704 5706 5708 5710 5712 5714 5715 5716 5717 5717 5718 5718 5718 5717 5716 5715 5713 5712 5710 5708 5706 5704 5703 5701 5700 5698 5698 5697 5697 5696 5696 5696 5695 5695 5695
5691 5691 5691 5692 5694 5695 5697 5699 5701 5702 5704 5706 5707 5708 5709 5710 5711 5711 5711 5711 5711 5709 5708 5706 5705 5703 5701 5699 5696 5695 5693 5691 5689 5688 5687 5687 5686 5686 5686 5686 5687 5687 5687
5690 5690 5690 5691 5691 5693 5694 5695 5697 5699 5700 5702 5703 5704 5705 5705 5705 5705 5705 5705 5704 5703 5702 5700 5698 5696 5694 5691 5688 5686 5683 5682 5680 5679 5678 5677 5676 5677 5677 5677 5678 5679 5680
5687 5687 5687 5688 5688 5689 5691 5692 5693 5695 5696 5698 5699 5700 5700 5701 5701 5701 5701 5701 5700 5699 5697 5695 5693 5690 5686 5683 5680 5677 5674 5672 5670 5669 5668 5668 5667 5667 5668 5669 5670 5671 5673